Regional Weather Roundup
Issued by NWS Goodland, KS

Home | Current Version | Previous Version | Graphics & Text | Print | Product List | Glossary On
Versions: 1 2 3 4 5 6 7 8 9 10 11 12 13 14 15 16 17 18 19 20 21 22 23 24 25 26 27 28 29 30 31 32 33 34 35 36 37 38 39 40 41 42 43 44 45 46 47 48 49 50
000
ASUS43 KGLD 062059
RWRGLD

GOODLAND FORECAST AREA HOURLY WEATHER ROUNDUP
NATIONAL WEATHER SERVICE GOODLAND KS
300 PM MDT MON JUL 06 2015

...OFFICIAL OBSERVATIONS...

CITY           SKY/WX    TMP DP  RH WIND       PRES   REMARKS
GOODLAND KS    CLOUDY    71  58  63 N16       30.15F HAZE
HILL CITY KS   CLOUDY    75  62  64 N25G31    30.05S HAZE
IMPERIAL NEB   PTSUNNY   75  54  47 N16G24    30.16S
MCCOOK NEB     PTSUNNY   77  57  50 N20       30.09F HAZE
AKRON CO       CLOUDY    67  54  63 N17       30.25F HAZE
BURLINGTON CO  CLOUDY    68  56  65 N16G22    30.19F
LIMON CO       CLOUDY    64  54  69 NE16      30.27F
$$

...UNOFFICIAL OBSERVATIONS...

CITY           SKY/WX    TMP DP  RH WIND       PRES   REMARKS
COLBY KS       CLOUDY    73  63  68 N21       30.13F
GOVE KS          N/A     72  32  23 MISG        N/A
NORTON KS      CLOUDY    75  55  50 N18G25    30.04F
SHARON SPRINGS   N/A     69  62  78 N13G23      N/A
KIT CARSON CO    N/A     66  58  75 MISG        N/A
YUMA CO          N/A     70  55  58 N10         N/A
$$



USA.gov is the U.S. government's official web portal to all federal, state and local government web resources and services.